Location: Six Mile Lake
(44.9000°N, 79.7170°W)
Time: 19:39:43
(UTC-04:00)

UKube-1 - Pass Details

Date: 06 July 2022
Orbit: 608 x 615 km, 98.4° (Epoch: 18 August)

Event Time Altitude Azimuth Distance (km) Brightness Sun altitude
Rises 22:37:34 0° 24° (NNE) 2,891 ? -12.6°
Reaches altitude 10° 22:40:01 10° 36° (NE) 1,980 ? -12.9°
Maximum altitude 22:43:44 28° 96° (E) 1,158 ? -13.3°
Enters shadow 22:45:29 21° 134° (SE) 1,379 ? -13.5°
